This demonstration page uses our WeatherBlox Daily Observations layout. Learn more.

Left ArrowRight Arrow

Hourly Observations for April 13, 2021

Temp ( °F °C ) Dew Point ( °F °C ) Humidity (%) Winds ( mph kmh ) Pressure ( in mb ) Visibility ( mi km ) Precip ( " mm )
12:15 am 00:15 Clear 34 1.1 20 -6.6 57 57 N 3 6 30.3 1026 10 16.0934 0 0
12:35 am 00:35 Clear 33 0.7 20 -6.5 59 59 NNW 3 6 30.3 1026 10 16.0934 0 0
12:55 am 00:55 Clear 33 0.8 21 -6 61 61 NNW 3 6 30.3 1026 10 16.0934 0 0
1:15 am 01:15 Clear 33 0.7 21 -6.2 60 60 NNW 5 7 30.31 1026 10 16.0934 0 0
1:35 am 01:35 Clear 34 1.3 21 -5.9 59 59 NNW 12 19 30.29 1026 10 16.0934 0 0
1:55 am 01:55 Clear 35 1.5 21 -5.9 58 58 NNW 8 13 30.3 1026 10 16.0934 0 0
2:15 am 02:15 Clear 34 1.3 22 -5.8 60 60 NW 8 13 30.29 1026 10 16.0934 0 0
2:35 am 02:35 Clear 32 0 21 -6 64 64 NW 6 9 30.32 1027 10 16.0934 0 0
2:55 am 02:55 Clear 32 0 21 -6.1 64 64 WNW 3 6 30.32 1027 10 16.0934 0 0
3:15 am 03:15 Clear 32 0 21 -6.3 63 63 Calm 30.32 1027 10 16.0934 0 0
3:35 am 03:35 Clear 32 0 21 -6.3 63 63 Calm 30.32 1027 10 16.0934 0 0
3:55 am 03:55 Clear 30 -0.9 20 -6.5 66 66 NNW 7 11 30.32 1027 10 16.0934 0 0
4:15 am 04:15 Clear 31 -0.5 20 -6.6 64 64 WNW 3 6 30.33 1027 10 16.0934 0 0
4:35 am 04:35 Clear 30 -1 20 -6.5 67 67 NNW 7 11 30.34 1027 10 16.0934 0 0
4:55 am 04:55 Clear 31 -0.5 20 -6.5 64 64 NNW 6 9 30.33 1027 10 16.0934 0 0
5:15 am 05:15 Clear 30 -1 20 -6.6 66 66 Calm 30.34 1027 10 16.0934 0 0
5:35 am 05:35 Clear 29 -1.4 20 -6.4 69 69 W 5 7 30.35 1028 10 16.0934 0 0
5:55 am 05:55 Clear 29 -1.5 20 -6.5 69 69 W 7 11 30.35 1028 10 16.0934 0 0
6:15 am 06:15 Clear 29 -1.8 20 -6.7 70 70 WSW 6 9 30.36 1028 10 16.0934 0 0
6:35 am 06:35 Partly Cloudy 29 -1.5 20 -6.6 69 69 W 6 9 30.36 1028 10 16.0934 0 0
6:55 am 06:55 Mostly Cloudy 29 -1.6 21 -6.1 72 72 W 7 11 30.36 1028 10 16.0934 0 0
7:15 am 07:15 Cloudy 32 -0.2 22 -5.5 68 68 W 6 9 30.36 1028 10 16.0934 0 0
7:35 am 07:35 Cloudy 33 0.8 22 -5.3 64 64 WNW 6 9 30.36 1028 10 16.0934 0 0
7:55 am 07:55 Cloudy 34 1.3 23 -5.1 63 63 WNW 7 11 30.35 1028 10 16.0934 0 0
8:15 am 08:15 Cloudy 35 1.9 23 -4.9 61 61 WNW 7 11 30.36 1028 10 16.0934 0 0
8:35 am 08:35 Cloudy 37 2.5 23 -4.9 59 59 WNW 8 13 30.35 1028 10 16.0934 0 0
8:55 am 08:55 Cloudy 37 3 23 -5.2 55 55 NW 10 17 30.35 1028 10 16.0934 0 0
9:15 am 09:15 Cloudy 38 3.3 22 -5.3 54 54 NW 9 15 30.34 1028 10 16.0934 0 0
9:35 am 09:35 Cloudy 39 3.8 23 -5.2 52 52 NNW 8 13 30.35 1028 10 16.0934 0 0
9:55 am 09:55 Cloudy 39 4.1 23 -5.1 52 52 NNW 10 17 30.34 1027 10 16.0934 0 0
10:15 am 10:15 Cloudy 40 4.7 23 -5 50 50 NW 13 20 30.33 1027 10 16.0934 0 0
10:35 am 10:35 Cloudy 42 5.3 23 -4.9 48 48 NNW 10 17 30.33 1027 10 16.0934 0 0
10:55 am 10:55 Cloudy 42 5.3 23 -4.8 48 48 NW 6 9 30.34 1027 10 16.0934 0 0
11:15 am 11:15 Cloudy 42 5.7 24 -4.6 48 48 NW 9 15 30.33 1027 10 16.0934 0 0
11:35 am 11:35 Cloudy 44 6.5 24 -4.5 46 46 WNW 9 15 30.32 1027 10 16.0934 0 0
11:55 am 11:55 Cloudy 44 6.6 24 -4.7 45 45 Calm 30.32 1027 10 16.0934 0 0
12:15 pm 12:15 Mostly Cloudy 46 7.6 24 -4.3 43 43 NNW 6 9 30.29 1026 10 16.0934 0 0
12:35 pm 12:35 Partly Cloudy 46 8 24 -4.6 41 41 NW 7 11 30.29 1026 10 16.0934 0 0
12:55 pm 12:55 Mostly Cloudy 48 8.8 22 -5.4 36 36 NW 9 15 30.27 1025 10 16.0934 0 0
1:15 pm 13:15 Cloudy 49 9.2 23 -4.8 37 37 NW 9 15 30.26 1025 10 16.0934 0 0
1:35 pm 13:35 Mostly Cloudy 48 9 23 -5.1 37 37 W 9 15 30.25 1024 10 16.0934 0 0
1:55 pm 13:55 Partly Cloudy 49 9.4 22 -5.7 34 34 WNW 14 22 30.24 1024 10 16.0934 0 0
2:15 pm 14:15 Partly Cloudy 51 10.3 24 -4.5 35 35 WNW 8 13 30.22 1023 10 16.0934 0 0
2:35 pm 14:35 Partly Cloudy 51 10.6 23 -5.2 33 33 W 13 20 30.21 1023 10 16.0934 0 0
2:55 pm 14:55 Sunny 52 11.2 22 -5.4 31 31 W 10 17 30.19 1022 10 16.0934 0 0
3:15 pm 15:15 Sunny 53 11.7 23 -4.8 31 31 NNW 9 15 30.19 1022 10 16.0934 0 0
3:35 pm 15:35 Sunny 53 11.7 23 -5 31 31 N 7 11 30.18 1022 10 16.0934 0 0
3:55 pm 15:55 Partly Cloudy 54 12.3 24 -4.6 31 31 WNW 15 24 30.15 1021 10 16.0934 0 0
4:15 pm 16:15 Partly Cloudy 55 12.7 23 -5.1 29 29 WNW 9 15 30.15 1021 10 16.0934 0 0
4:35 pm 16:35 Partly Cloudy 56 13.1 22 -5.5 27 27 W 13 20 30.14 1021 10 16.0934 0 0
4:55 pm 16:55 Sunny 56 13.1 22 -5.5 27 27 W 13 20 30.14 1021 10 16.0934 0 0
5:15 pm 17:15 Sunny 55 12.8 22 -5.7 27 27 W 6 9 30.13 1020 10 16.0934 0 0
5:35 pm 17:35 Sunny 55 12.8 23 -5.2 28 28 W 6 9 30.13 1020 10 16.0934 0 0
5:55 pm 17:55 Sunny 56 13.2 22 -5.5 27 27 WNW 12 19 30.11 1020 10 16.0934 0 0
6:15 pm 18:15 Sunny 56 13.2 22 -5.8 26 26 NW 12 19 30.11 1020 10 16.0934 0 0
6:35 pm 18:35 Sunny 55 13 22 -5.7 27 27 NW 7 11 30.12 1020 10 16.0934 0 0
6:55 pm 18:55 Sunny 55 12.8 21 -6.2 26 26 NW 10 17 30.12 1020 10 16.0934 0 0
7:15 pm 19:15 Sunny 55 12.7 21 -5.9 27 27 WNW 12 19 30.13 1020 10 16.0934 0 0
7:35 pm 19:35 Sunny 54 12.3 21 -6.2 27 27 NW 8 13 30.13 1020 10 16.0934 0 0
7:55 pm 19:55 Sunny 53 11.6 21 -6.1 29 29 NW 7 11 30.14 1021 10 16.0934 0 0
8:15 pm 20:15 Clear 50 9.8 21 -6.2 32 32 NW 7 11 30.15 1021 10 16.0934 0 0
8:35 pm 20:35 Clear 49 9.5 21 -6.1 33 33 NW 6 9 30.17 1022 10 16.0934 0 0
8:55 pm 20:55 Clear 46 7.6 20 -6.8 36 36 NW 7 11 30.18 1022 10 16.0934 0 0
9:15 pm 21:15 Clear 46 7.6 20 -6.6 36 36 WNW 6 9 30.19 1022 10 16.0934 0 0
9:35 pm 21:35 Clear 46 7.7 20 -6.5 36 36 WNW 6 9 30.19 1022 10 16.0934 0 0
9:55 pm 21:55 Clear 45 7.1 20 -6.7 37 37 WNW 8 13 30.22 1023 10 16.0934 0 0
10:15 pm 22:15 Clear 41 5.2 20 -6.5 43 43 WNW 7 11 30.24 1024 10 16.0934 0 0
10:35 pm 22:35 Clear 43 6.2 22 -5.7 43 43 N 10 17 30.24 1024 10 16.0934 0 0
10:55 pm 22:55 Clear 40 4.6 24 -4.5 52 52 NNE 9 15 30.26 1025 10 16.0934 0 0
11:15 pm 23:15 Clear 38 3.5 23 -5 54 54 NNE 12 19 30.28 1025 10 16.0934 0 0
11:35 pm 23:35 Clear 40 4.4 24 -4.2 54 54 NNE 14 22 30.29 1026 10 16.0934 0 0
11:55 pm 23:55 Clear 39 3.9 24 -4.3 55 55 NNE 10 17 30.31 1026 10 16.0934 0 0

Powered by AerisWeather